Johnstown, PA

3:38 PM EST on December 04, 2016 (GMT -0500)
Johnstown-Cambria County

Weather History for KJST - October, 2013

Change the Weather History Date:

Monday, October 7, 2013

  Actual Average Record
Temperature  
Mean Temperature 55 °F 52 °F  
Max Temperature 66 °F 61 °F 89 °F (1900)
Min Temperature 44 °F 43 °F 27 °F (1935)
Degree Days  
Heating Degree Days 10 13  
Month to date heating degree days 12 85  
Since 1 July heating degree days 300 303  
Cooling Degree Days 0 0  
Month to date cooling degree days 16 0  
Year to date cooling degree days 393 382  
Growing Degree Days 5 (Base 50)    
Moisture  
Dew Point 48 °F    
Average Humidity 80    
Maximum Humidity 100    
Minimum Humidity 59    
Precipitation  
Precipitation 0.46 in 0.10 in 1.21 in (2005)
Month to date precipitation 0.83 0.76  
Year to date precipitation 29.85 25.05  
Sea Level Pressure  
Sea Level Pressure 29.88 in    
Wind  
Wind Speed 14 mph (WSW)    
Max Wind Speed 20 mph    
Max Gust Speed 30 mph    
Visibility 8 miles    
Events Rain    
T = Trace of Precipitation, MM = Missing Value Source: NWS Daily Summary

Daily Weather History Graph

Daily Weather History Graph

Search for Another Location

Airport or City:

Trip Planner

Search our weather history database for the weather conditions in past years. The results will help you decide how hot, cold, wet, or windy it might be!

Date:

Astronomy

Oct. 07, 2013 Rise Set
Actual Time 7:18 AM EDT 6:47 PM EDT
Civil Twilight 6:50 AM EDT 7:14 PM EDT
Nautical Twilight 6:19 AM EDT 7:46 PM EDT
Astronomical Twilight 5:47 AM EDT 8:17 PM EDT
Moon 10:06 AM EDT (10/7) 8:30 PM EDT (10/7)
Length of Visible Light 12h 23m
Length of Day
11h 29m
Waxing Crescent, 8% of the Moon is Illuminated
Oct 7
Waxing Crescent
Oct 11
First Quarter
Oct 18
Full
Oct 26
Last Quarter
Nov 3
New

Hourly Weather History & Observations

Time (EDT) Temp. Windchill Dew Point Humidity Pressure Visibility Wind Dir Wind Speed Gust Speed Precip Events Conditions
12:54 AM 64.9 °F - 57.9 °F 78% 29.82 in 10.0 mi SSE 15.0 mph 23.0 mph N/A   Clear
1:54 AM 64.9 °F - 59.0 °F 81% 29.80 in 10.0 mi South 16.1 mph 23.0 mph N/A   Clear
2:54 AM 64.0 °F - 59.0 °F 84% 29.78 in 10.0 mi SSE 17.3 mph - N/A   Clear
3:54 AM 64.9 °F - 59.0 °F 81% 29.76 in 10.0 mi South 19.6 mph 26.5 mph N/A   Clear
4:54 AM 64.9 °F - 59.0 °F 81% 29.74 in 10.0 mi South 19.6 mph 24.2 mph N/A   Clear
5:54 AM 64.9 °F - 59.0 °F 81% 29.73 in 10.0 mi South 16.1 mph 26.5 mph N/A   Mostly Cloudy
6:52 AM 57.2 °F - 53.6 °F 88% 29.81 in 10.0 mi West 21.9 mph 34.5 mph 0.00 in Rain Light Rain
6:54 AM 57.0 °F - 54.0 °F 89% 29.78 in 10.0 mi West 21.9 mph 34.5 mph 0.00 in Rain Light Rain
7:01 AM 55.4 °F - 51.8 °F 88% 29.81 in 10.0 mi West 19.6 mph 34.5 mph 0.00 in Rain Light Rain
7:21 AM 53.6 °F - 51.8 °F 94% 29.81 in 7.0 mi West 15.0 mph - 0.03 in Rain Light Rain
7:54 AM 53.1 °F - 52.0 °F 96% 29.81 in 7.0 mi West 15.0 mph 18.4 mph 0.06 in Rain Light Rain
8:25 AM 51.8 °F - 51.8 °F 100% 29.84 in 2.5 mi West 10.4 mph - 0.08 in Rain Heavy Rain
8:54 AM 51.1 °F - 51.1 °F 100% 29.83 in 1.5 mi West 8.1 mph 18.4 mph 0.23 in Rain Heavy Rain
9:09 AM 51.8 °F - 51.8 °F 100% 29.85 in 2.0 mi WSW 11.5 mph - 0.07 in Rain Heavy Rain
9:20 AM 51.8 °F - 50.0 °F 94% 29.83 in 7.0 mi West 10.4 mph - 0.08 in Rain Light Rain
9:54 AM 50.0 °F - 48.9 °F 96% 29.84 in 10.0 mi WSW 12.7 mph - 0.11 in Rain Light Rain
10:12 AM 51.8 °F - 48.2 °F 88% 29.85 in 6.0 mi WSW 10.4 mph - 0.02 in Rain Rain
10:24 AM 50.0 °F - 48.2 °F 94% 29.86 in 10.0 mi WSW 12.7 mph 20.7 mph 0.02 in Rain Light Rain
10:34 AM 50.0 °F - 48.2 °F 94% 29.86 in 10.0 mi West 11.5 mph - 0.02 in Rain Light Rain
10:44 AM 50.0 °F - 48.2 °F 94% 29.85 in 6.0 mi West 11.5 mph - 0.03 in Rain Light Rain
10:54 AM 50.0 °F - 48.9 °F 96% 29.84 in 8.0 mi West 13.8 mph 21.9 mph 0.04 in Rain Light Rain
11:30 AM 50.0 °F - 48.2 °F 94% 29.86 in 6.0 mi West 11.5 mph - 0.02 in Rain Light Rain
11:54 AM 50.0 °F - 48.9 °F 96% 29.85 in 4.0 mi West 13.8 mph - 0.02 in Rain Light Rain
11:57 AM 50.0 °F - 48.2 °F 94% 29.86 in 1.5 mi West 11.5 mph - 0.00 in Rain Light Rain
12:07 PM 48.2 °F - 48.2 °F 100% 29.86 in 3.0 mi West 21.9 mph 29.9 mph 0.00 in Rain Light Rain
12:36 PM 48.2 °F - 48.2 °F 100% 29.87 in 2.5 mi West 15.0 mph 20.7 mph 0.00 in   Overcast
12:43 PM 46.4 °F 39.2 °F 46.4 °F 100% 29.87 in 10.0 mi West 18.4 mph 26.5 mph 0.00 in   Overcast
12:54 PM 46.9 °F - 43.0 °F 86% 29.86 in 10.0 mi West 16.1 mph 29.9 mph 0.00 in   Overcast
1:02 PM 48.2 °F - 42.8 °F 82% 29.87 in 10.0 mi West 18.4 mph 27.6 mph N/A   Overcast
1:10 PM 48.2 °F - 42.8 °F 82% 29.87 in 10.0 mi West 15.0 mph 27.6 mph N/A   Mostly Cloudy
1:32 PM 50.0 °F - 42.8 °F 76% 29.87 in 10.0 mi West 15.0 mph 28.8 mph N/A   Scattered Clouds
1:54 PM 51.1 °F - 43.0 °F 74% 29.86 in 10.0 mi West 18.4 mph 28.8 mph N/A   Mostly Cloudy
2:54 PM 51.1 °F - 41.0 °F 68% 29.89 in 10.0 mi West 15.0 mph 29.9 mph N/A   Mostly Cloudy
3:54 PM 52.0 °F - 39.9 °F 63% 29.91 in 10.0 mi West 12.7 mph 20.7 mph N/A   Overcast
4:54 PM 53.1 °F - 39.0 °F 59% 29.93 in 10.0 mi West 16.1 mph 24.2 mph N/A   Mostly Cloudy
5:54 PM 52.0 °F - 39.0 °F 61% 29.96 in 10.0 mi West 16.1 mph 24.2 mph N/A   Overcast
6:54 PM 50.0 °F - 37.9 °F 63% 30.01 in 10.0 mi West 15.0 mph 23.0 mph N/A   Partly Cloudy
7:54 PM 48.0 °F - 39.0 °F 71% 30.05 in 10.0 mi West 11.5 mph - N/A   Clear
8:54 PM 48.0 °F - 39.0 °F 71% 30.07 in 10.0 mi West 10.4 mph - N/A   Clear
9:54 PM 46.0 °F 43.1 °F 39.9 °F 79% 30.12 in 10.0 mi West 5.8 mph - N/A   Clear
10:54 PM 46.9 °F - 39.0 °F 74% 30.12 in 10.0 mi WSW 10.4 mph 21.9 mph N/A   Clear
11:54 PM 45.0 °F 41.8 °F 39.0 °F 80% 30.14 in 10.0 mi SW 5.8 mph - N/A   Clear